Orbital Elements at Epoch 2459200.5 (2020-Dec-17.0) TDB
Reference: JPL 23 (heliocentric ecliptic J2000)
Element | Value | Uncertainty (1-sigma) | Units |
e | .07537718994564316 | 3.319e-08 | |
a | 2.309630749111479 | 7.5397e-09 | au |
q | 2.135537273431405 | 7.7368e-08 | au |
i | 6.994095889554336 | 5.0075e-06 | deg |
node | 297.8231671718478 | 2.7323e-05 | deg |
peri | 121.6812814298898 | 4.344e-05 | deg |
M | 37.29626496509086 | 3.2876e-05 | deg |
tp | 2459067.676445893765 (2020-Aug-06.17644589) | 0.00011702 | TDB |
period | 1282.071529763119 3.51 | 6.2779e-06 1.719e-08 | d yr |
n | .2807955653352003 | 1.375e-09 | deg/d |
Q | 2.483724224791553 | 8.1081e-09 | au |
|
| | Orbit Determination Parameters
Additional Information
|